PIMOHWEATHER Station Historical Data
Daily Summary for January 21, 2020 Units:  Metric    English   Both
Daily Weekly Monthly Yearly
  High: Low: Average:
Temperature: 32.0 °C 24.0 °C 27.3 °C
Dew Point: 25.0 °C 19.0 °C 21 °C
Humidity: 88% 51% 70%
Wind Speed: 22km/h 0km/h 7.1km/h
Wind Gust: 32km/h - -
Wind- - SE
Pressure: 1018.7 hPa 1014.9 hPa -
Precipitation: 0.00 mm    
 
 
Tabular Data for January 21, 2020
Time Temperature Dew Point Pressure Wind Wind Speed Wind Gust Humidity Rainfall Rate (Hourly) solar
00:04 26.0 °C 22.0 °C 1016.4 hPa SE 1 km/h 4 km/h 79% 0.00 mm 0.00 W/m2
00:09 26.0 °C 22.0 °C 1016.1 hPa Calm     80% 0.00 mm 0.00 W/m2
00:14 26.0 °C 22.0 °C 1016.1 hPa Calm     80% 0.00 mm 0.00 W/m2
00:19 26.0 °C 22.0 °C 1016.1 hPa Calm     80% 0.00 mm 0.00 W/m2
00:24 26.0 °C 22.0 °C 1016.1 hPa Calm     80% 0.00 mm 0.00 W/m2
00:29 26.0 °C 22.0 °C 1016.3 hPa North 2 km/h 4 km/h 80% 0.00 mm 0.00 W/m2
00:34 26.0 °C 22.0 °C 1016.1 hPa North 5 km/h 8 km/h 79% 0.00 mm 0.00 W/m2
00:39 26.0 °C 22.0 °C 1016.1 hPa NNW 5 km/h 8 km/h 80% 0.00 mm 0.00 W/m2
00:44 25.0 °C 22.0 °C 1016.1 hPa NW 5 km/h 8 km/h 80% 0.00 mm 0.00 W/m2
00:49 25.0 °C 22.0 °C 1016.1 hPa NW 6 km/h 8 km/h 80% 0.00 mm 0.00 W/m2
00:54 25.0 °C 22.0 °C 1015.9 hPa NW 3 km/h 4 km/h 81% 0.00 mm 0.00 W/m2
00:59 25.0 °C 22.0 °C 1015.7 hPa NW 4 km/h 8 km/h 81% 0.00 mm 0.00 W/m2
01:04 25.0 °C 22.0 °C 1015.7 hPa NNW 3 km/h 4 km/h 81% 0.00 mm 0.00 W/m2
01:09 25.0 °C 22.0 °C 1015.7 hPa NW 4 km/h 4 km/h 81% 0.00 mm 0.00 W/m2
01:14 25.0 °C 21.0 °C 1015.7 hPa Calm     81% 0.00 mm 0.00 W/m2
01:19 25.0 °C 21.0 °C 1015.6 hPa Calm     82% 0.00 mm 0.00 W/m2
01:24 25.0 °C 21.0 °C 1015.6 hPa Calm     82% 0.00 mm 0.00 W/m2
01:29 25.0 °C 21.0 °C 1015.6 hPa Calm     82% 0.00 mm 0.00 W/m2
01:34 25.0 °C 21.0 °C 1015.7 hPa Calm     82% 0.00 mm 0.00 W/m2
01:39 25.0 °C 21.0 °C 1015.7 hPa Calm     82% 0.00 mm 0.00 W/m2
01:44 25.0 °C 21.0 °C 1015.4 hPa Calm     82% 0.00 mm 0.00 W/m2
01:49 25.0 °C 21.0 °C 1015.4 hPa Calm     83% 0.00 mm 0.00 W/m2
01:54 25.0 °C 22.0 °C 1015.4 hPa Calm     83% 0.00 mm 0.00 W/m2
01:59 25.0 °C 22.0 °C 1015.4 hPa Calm     83% 0.00 mm 0.00 W/m2
02:04 25.0 °C 22.0 °C 1015.4 hPa Calm     83% 0.00 mm 0.00 W/m2
02:09 25.0 °C 22.0 °C 1015.4 hPa Calm     83% 0.00 mm 0.00 W/m2
02:14 25.0 °C 21.0 °C 1015.0 hPa Calm     83% 0.00 mm 0.00 W/m2
02:19 25.0 °C 21.0 °C 1015.0 hPa Calm     83% 0.00 mm 0.00 W/m2
02:24 25.0 °C 22.0 °C 1015.0 hPa Calm     84% 0.00 mm 0.00 W/m2
02:29 25.0 °C 22.0 °C 1015.0 hPa North 4 km/h 4 km/h 84% 0.00 mm 0.00 W/m2
02:34 25.0 °C 22.0 °C 1015.0 hPa North 3 km/h 4 km/h 84% 0.00 mm 0.00 W/m2
02:39 25.0 °C 22.0 °C 1015.0 hPa Calm     84% 0.00 mm 0.00 W/m2
02:44 25.0 °C 22.0 °C 1015.0 hPa Calm     84% 0.00 mm 0.00 W/m2
02:49 25.0 °C 22.0 °C 1015.0 hPa Calm     84% 0.00 mm 0.00 W/m2
02:54 25.0 °C 22.0 °C 1015.0 hPa Calm     84% 0.00 mm 0.00 W/m2
02:59 25.0 °C 22.0 °C 1015.1 hPa North 1 km/h 4 km/h 84% 0.00 mm 0.00 W/m2
03:04 25.0 °C 22.0 °C 1015.1 hPa North 1 km/h 4 km/h 84% 0.00 mm 0.00 W/m2
03:09 25.0 °C 22.0 °C 1015.1 hPa North 3 km/h 4 km/h 84% 0.00 mm 0.00 W/m2
03:14 25.0 °C 22.0 °C 1015.1 hPa North 4 km/h 8 km/h 84% 0.00 mm 0.00 W/m2
03:19 25.0 °C 22.0 °C 1015.1 hPa NNW 2 km/h 4 km/h 84% 0.00 mm 0.00 W/m2
03:24 25.0 °C 22.0 °C 1015.1 hPa North 3 km/h 4 km/h 84% 0.00 mm 0.00 W/m2
03:29 24.0 °C 21.0 °C 1015.1 hPa WNW 3 km/h 4 km/h 84% 0.00 mm 0.00 W/m2
03:34 24.0 °C 22.0 °C 1015.1 hPa West 1 km/h 4 km/h 85% 0.00 mm 0.00 W/m2
03:39 24.0 °C 22.0 °C 1015.1 hPa Calm   4 km/h 85% 0.00 mm 0.00 W/m2
03:44 24.0 °C 22.0 °C 1015.1 hPa Calm     85% 0.00 mm 0.00 W/m2
03:49 24.0 °C 22.0 °C 1015.3 hPa Calm     85% 0.00 mm 0.00 W/m2
03:54 24.0 °C 22.0 °C 1015.4 hPa North 2 km/h 4 km/h 85% 0.00 mm 0.00 W/m2
03:59 24.0 °C 21.0 °C 1015.4 hPa Calm   4 km/h 84% 0.00 mm 0.00 W/m2
04:04 24.0 °C 21.0 °C 1015.4 hPa North 6 km/h 8 km/h 84% 0.00 mm 0.00 W/m2
04:09 24.0 °C 21.0 °C 1015.4 hPa NNW 5 km/h 8 km/h 84% 0.00 mm 0.00 W/m2
04:14 24.0 °C 21.0 °C 1015.4 hPa North 5 km/h 8 km/h 84% 0.00 mm 0.00 W/m2
04:19 24.0 °C 21.0 °C 1015.4 hPa North 5 km/h 8 km/h 84% 0.00 mm 0.00 W/m2
04:24 24.0 °C 21.0 °C 1015.4 hPa North 6 km/h 8 km/h 84% 0.00 mm 0.00 W/m2
04:29 24.0 °C 21.0 °C 1015.4 hPa North 5 km/h 8 km/h 85% 0.00 mm 0.00 W/m2
04:34 24.0 °C 21.0 °C 1015.4 hPa North 7 km/h 8 km/h 85% 0.00 mm 0.00 W/m2
04:39 24.0 °C 21.0 °C 1015.4 hPa NNE 4 km/h 8 km/h 86% 0.00 mm 0.00 W/m2
04:44 24.0 °C 22.0 °C 1015.4 hPa NNE 2 km/h 4 km/h 86% 0.00 mm 0.00 W/m2
04:49 24.0 °C 22.0 °C 1015.5 hPa NNE 3 km/h 4 km/h 86% 0.00 mm 0.00 W/m2
04:54 24.0 °C 21.0 °C 1015.8 hPa NNE 4 km/h 4 km/h 86% 0.00 mm 0.00 W/m2
04:59 24.0 °C 22.0 °C 1015.8 hPa NNE 5 km/h 8 km/h 86% 0.00 mm 0.00 W/m2
05:04 24.0 °C 22.0 °C 1015.8 hPa North 5 km/h 8 km/h 86% 0.00 mm 0.00 W/m2
05:09 24.0 °C 22.0 °C 1015.8 hPa North 6 km/h 8 km/h 86% 0.00 mm 0.00 W/m2
05:14 24.0 °C 22.0 °C 1015.8 hPa NNE 8 km/h 8 km/h 86% 0.00 mm 0.00 W/m2
05:19 24.0 °C 22.0 °C 1015.8 hPa NNE 8 km/h 12 km/h 87% 0.00 mm 0.00 W/m2
05:24 24.0 °C 22.0 °C 1015.9 hPa NNE 5 km/h 8 km/h 87% 0.00 mm 0.00 W/m2
05:29 24.0 °C 22.0 °C 1015.8 hPa NNE 3 km/h 4 km/h 87% 0.00 mm 0.00 W/m2
05:34 24.0 °C 22.0 °C 1015.8 hPa North 5 km/h 8 km/h 87% 0.00 mm 0.00 W/m2
05:39 24.0 °C 22.0 °C 1016.1 hPa North 6 km/h 8 km/h 87% 0.00 mm 0.00 W/m2
05:44 24.0 °C 22.0 °C 1016.1 hPa NNE 4 km/h 8 km/h 87% 0.00 mm 0.00 W/m2
05:49 24.0 °C 22.0 °C 1016.1 hPa Calm     87% 0.00 mm 0.00 W/m2
05:54 24.0 °C 22.0 °C 1016.1 hPa Calm     87% 0.00 mm 0.00 W/m2
05:59 24.0 °C 22.0 °C 1016.1 hPa Calm     88% 0.00 mm 0.00 W/m2
06:04 24.0 °C 22.0 °C 1016.1 hPa Calm     88% 0.00 mm 0.00 W/m2
06:09 24.0 °C 22.0 °C 1016.1 hPa Calm     88% 0.00 mm 0.00 W/m2
06:14 24.0 °C 22.0 °C 1016.1 hPa Calm     88% 0.00 mm 0.00 W/m2
06:19 24.0 °C 22.0 °C 1016.1 hPa Calm     88% 0.00 mm 0.00 W/m2
06:24 24.0 °C 22.0 °C 1016.1 hPa Calm     88% 0.00 mm 0.95 W/m2
06:29 24.0 °C 21.0 °C 1016.3 hPa Calm     88% 0.00 mm 3.69 W/m2
06:34 24.0 °C 21.0 °C 1016.4 hPa Calm     88% 0.00 mm 6.67 W/m2
06:39 24.0 °C 22.0 °C 1016.4 hPa Calm     88% 0.00 mm 10.25 W/m2
06:44 24.0 °C 22.0 °C 1016.4 hPa Calm     88% 0.00 mm 14.06 W/m2
06:49 24.0 °C 22.0 °C 1016.4 hPa North 1 km/h 4 km/h 88% 0.00 mm 17.80 W/m2
06:54 24.0 °C 22.0 °C 1016.6 hPa North 4 km/h 4 km/h 87% 0.00 mm 23.06 W/m2
06:59 24.0 °C 22.0 °C 1016.8 hPa North 4 km/h 4 km/h 87% 0.00 mm 25.45 W/m2
07:04 24.0 °C 22.0 °C 1017.1 hPa North 4 km/h 4 km/h 87% 0.00 mm 24.70 W/m2
07:09 24.0 °C 22.0 °C 1016.9 hPa North 3 km/h 4 km/h 87% 0.00 mm 29.89 W/m2
07:14 24.0 °C 22.0 °C 1017.1 hPa NNW 1 km/h 4 km/h 87% 0.00 mm 48.43 W/m2
07:19 25.0 °C 22.0 °C 1017.1 hPa Calm     86% 0.00 mm 74.40 W/m2
07:24 25.0 °C 22.0 °C 1017.1 hPa Calm     86% 0.00 mm 75.65 W/m2
07:29 25.0 °C 22.0 °C 1017.1 hPa North 5 km/h 8 km/h 83% 0.00 mm 55.09 W/m2
07:34 25.0 °C 22.0 °C 1017.1 hPa NW 4 km/h 12 km/h 83% 0.00 mm 67.56 W/m2
07:39 25.0 °C 22.0 °C 1017.4 hPa NW 5 km/h 8 km/h 83% 0.00 mm 67.36 W/m2
07:44 26.0 °C 22.0 °C 1017.4 hPa WNW 3 km/h 4 km/h 83% 0.00 mm 70.57 W/m2
07:49 26.0 °C 22.0 °C 1017.5 hPa NW 5 km/h 8 km/h 82% 0.00 mm 66.11 W/m2
07:54 26.0 °C 23.0 °C 1017.6 hPa WNW 4 km/h 4 km/h 82% 0.00 mm 67.45 W/m2
07:59 26.0 °C 23.0 °C 1017.6 hPa NW 5 km/h 8 km/h 82% 0.00 mm 73.99 W/m2
08:04 26.0 °C 23.0 °C 1017.8 hPa NW 5 km/h 12 km/h 82% 0.00 mm 79.69 W/m2
08:09 26.0 °C 22.0 °C 1017.9 hPa North 5 km/h 12 km/h 81% 0.00 mm 88.00 W/m2
08:14 26.0 °C 23.0 °C 1017.9 hPa NNW 5 km/h 8 km/h 81% 0.00 mm 94.66 W/m2
08:19 27.0 °C 23.0 °C 1018.1 hPa NW 5 km/h 8 km/h 80% 0.00 mm 98.16 W/m2
08:24 27.0 °C 23.0 °C 1018.1 hPa Calm     78% 0.00 mm 101.49 W/m2
08:29 27.0 °C 23.0 °C 1018.1 hPa SE 2 km/h 4 km/h 77% 0.00 mm 120.90 W/m2
08:34 27.0 °C 23.0 °C 1018.1 hPa Calm   4 km/h 76% 0.00 mm 107.70 W/m2
08:39 27.0 °C 23.0 °C 1018.1 hPa WSW 4 km/h 4 km/h 76% 0.00 mm 110.44 W/m2
08:44 28.0 °C 23.0 °C 1018.1 hPa SSE 12 km/h 12 km/h 76% 0.00 mm 197.32 W/m2
08:49 28.0 °C 23.0 °C 1018.1 hPa ESE 12 km/h 16 km/h 73% 0.00 mm 181.22 W/m2
08:54 29.0 °C 23.0 °C 1018.4 hPa South 8 km/h 8 km/h 73% 0.00 mm 182.81 W/m2
08:59 29.0 °C 23.0 °C 1018.4 hPa NW 3 km/h 8 km/h 72% 0.00 mm 201.75 W/m2
09:04 29.0 °C 23.0 °C 1018.4 hPa SE 10 km/h 12 km/h 70% 0.00 mm 208.82 W/m2
09:09 29.0 °C 22.0 °C 1018.4 hPa SSE 9 km/h 12 km/h 69% 0.00 mm 212.25 W/m2
09:14 29.0 °C 22.0 °C 1018.4 hPa ESE 9 km/h 12 km/h 69% 0.00 mm 226.17 W/m2
09:19 29.0 °C 22.0 °C 1018.7 hPa ESE 10 km/h 12 km/h 68% 0.00 mm 185.69 W/m2
09:24 29.0 °C 22.0 °C 1018.4 hPa ESE 14 km/h 16 km/h 69% 0.00 mm 175.01 W/m2
09:29 29.0 °C 23.0 °C 1018.5 hPa SSE 7 km/h 12 km/h 69% 0.00 mm 262.09 W/m2
09:34 29.0 °C 23.0 °C 1018.6 hPa SE 7 km/h 12 km/h 68% 0.00 mm 348.36 W/m2
09:39 30.0 °C 23.0 °C 1018.4 hPa NE 6 km/h 12 km/h 67% 0.00 mm 345.03 W/m2
09:44 30.0 °C 23.0 °C 1018.4 hPa SSE 11 km/h 16 km/h 65% 0.00 mm 334.00 W/m2
09:49 30.0 °C 23.0 °C 1018.4 hPa ENE 14 km/h 16 km/h 66% 0.00 mm 142.59 W/m2
09:54 29.0 °C 23.0 °C 1018.3 hPa NE 12 km/h 16 km/h 71% 0.00 mm 166.30 W/m2
09:59 29.0 °C 24.0 °C 1018.1 hPa North 12 km/h 16 km/h 76% 0.00 mm 195.83 W/m2
10:04 29.0 °C 25.0 °C 1018.1 hPa NW 15 km/h 20 km/h 78% 0.00 mm 346.18 W/m2
10:09 29.0 °C 24.0 °C 1018.1 hPa NNW 10 km/h 20 km/h 76% 0.00 mm 311.78 W/m2
10:14 29.0 °C 24.0 °C 1018.1 hPa NW 13 km/h 16 km/h 77% 0.00 mm 343.39 W/m2
10:19 28.0 °C 24.0 °C 1018.1 hPa NNW 15 km/h 24 km/h 78% 0.00 mm 329.54 W/m2
10:24 28.0 °C 23.0 °C 1018.1 hPa NNW 13 km/h 16 km/h 76% 0.00 mm 316.19 W/m2
10:29 28.0 °C 23.0 °C 1018.1 hPa NW 10 km/h 12 km/h 75% 0.00 mm 160.28 W/m2
10:34 28.0 °C 23.0 °C 1018.1 hPa NNW 18 km/h 20 km/h 75% 0.00 mm 233.17 W/m2
10:39 29.0 °C 23.0 °C 1018.1 hPa NNE 18 km/h 20 km/h 74% 0.00 mm 268.52 W/m2
10:44 29.0 °C 22.0 °C 1018.1 hPa East 16 km/h 20 km/h 65% 0.00 mm 140.73 W/m2
10:49 30.0 °C 22.0 °C 1018.1 hPa NE 9 km/h 16 km/h 63% 0.00 mm 163.09 W/m2
10:54 30.0 °C 22.0 °C 1017.9 hPa North 12 km/h 16 km/h 63% 0.00 mm 170.04 W/m2
10:59 30.0 °C 22.0 °C 1018.1 hPa ESE 6 km/h 12 km/h 62% 0.00 mm 270.16 W/m2
11:04 30.0 °C 22.0 °C 1017.7 hPa ESE 19 km/h 20 km/h 62% 0.00 mm 310.07 W/m2
11:09 30.0 °C 22.0 °C 1017.9 hPa ESE 14 km/h 20 km/h 62% 0.00 mm 305.66 W/m2
11:14 30.0 °C 22.0 °C 1017.7 hPa ESE 12 km/h 16 km/h 62% 0.00 mm 438.94 W/m2
11:19 31.0 °C 22.0 °C 1017.7 hPa SE 13 km/h 20 km/h 62% 0.00 mm 479.48 W/m2
11:24 31.0 °C 22.0 °C 1017.7 hPa ENE 13 km/h 20 km/h 61% 0.00 mm 210.54 W/m2
11:29 30.0 °C 22.0 °C 1017.7 hPa ESE 13 km/h 20 km/h 62% 0.00 mm 151.59 W/m2
11:34 30.0 °C 22.0 °C 1017.7 hPa ESE 8 km/h 12 km/h 63% 0.00 mm 124.14 W/m2
11:39 30.0 °C 22.0 °C 1017.7 hPa ESE 15 km/h 16 km/h 64% 0.00 mm 152.30 W/m2
11:44 30.0 °C 22.0 °C 1017.5 hPa ESE 10 km/h 16 km/h 64% 0.00 mm 455.26 W/m2
11:49 31.0 °C 22.0 °C 1017.7 hPa West 9 km/h 12 km/h 61% 0.00 mm 509.38 W/m2
11:54 32.0 °C 22.0 °C 1017.3 hPa ENE 14 km/h 16 km/h 58% 0.00 mm 548.60 W/m2
11:59 31.0 °C 22.0 °C 1017.2 hPa ESE 17 km/h 24 km/h 58% 0.00 mm 359.57 W/m2
12:04 31.0 °C 21.0 °C 1017.0 hPa SE 14 km/h 20 km/h 59% 0.00 mm 168.80 W/m2
12:09 30.0 °C 21.0 °C 1017.0 hPa ESE 12 km/h 20 km/h 59% 0.00 mm 151.27 W/m2
12:14 31.0 °C 22.0 °C 1017.0 hPa NE 8 km/h 12 km/h 60% 0.00 mm 140.96 W/m2
12:19 31.0 °C 22.0 °C 1017.0 hPa SE 12 km/h 16 km/h 60% 0.00 mm 144.50 W/m2
12:24 30.0 °C 22.0 °C 1017.0 hPa ENE 15 km/h 20 km/h 60% 0.00 mm 176.13 W/m2
12:29 30.0 °C 22.0 °C 1017.0 hPa ENE 12 km/h 20 km/h 60% 0.00 mm 267.25 W/m2
12:34 30.0 °C 21.0 °C 1016.7 hPa NE 17 km/h 24 km/h 59% 0.00 mm 332.65 W/m2
12:39 30.0 °C 21.0 °C 1016.7 hPa NE 14 km/h 20 km/h 58% 0.00 mm 253.52 W/m2
12:44 30.0 °C 21.0 °C 1016.7 hPa NNE 22 km/h 28 km/h 59% 0.00 mm 176.33 W/m2
12:49 30.0 °C 21.0 °C 1016.7 hPa NE 16 km/h 28 km/h 59% 0.00 mm 179.24 W/m2
12:54 30.0 °C 21.0 °C 1016.3 hPa ENE 9 km/h 12 km/h 58% 0.00 mm 263.12 W/m2
12:59 31.0 °C 21.0 °C 1016.3 hPa ENE 10 km/h 16 km/h 58% 0.00 mm 331.06 W/m2
13:04 31.0 °C 21.0 °C 1016.2 hPa East 15 km/h 20 km/h 57% 0.00 mm 204.13 W/m2
13:09 30.0 °C 20.0 °C 1016.0 hPa ESE 13 km/h 20 km/h 55% 0.00 mm 237.45 W/m2
13:14 31.0 °C 20.0 °C 1016.0 hPa SE 11 km/h 16 km/h 55% 0.00 mm 238.89 W/m2
13:19 31.0 °C 21.0 °C 1016.0 hPa ESE 12 km/h 20 km/h 55% 0.00 mm 266.10 W/m2
13:24 31.0 °C 20.0 °C 1016.0 hPa NNE 19 km/h 24 km/h 54% 0.00 mm 212.55 W/m2
13:29 31.0 °C 20.0 °C 1015.7 hPa ESE 13 km/h 24 km/h 54% 0.00 mm 248.07 W/m2
13:34 31.0 °C 20.0 °C 1015.7 hPa SE 19 km/h 24 km/h 53% 0.00 mm 192.12 W/m2
13:39 31.0 °C 20.0 °C 1015.7 hPa NE 11 km/h 16 km/h 54% 0.00 mm 491.91 W/m2
13:44 31.0 °C 20.0 °C 1015.3 hPa ESE 15 km/h 20 km/h 53% 0.00 mm 511.24 W/m2
13:49 32.0 °C 21.0 °C 1015.3 hPa ENE 11 km/h 20 km/h 52% 0.00 mm 527.93 W/m2
13:54 32.0 °C 21.0 °C 1015.4 hPa East 18 km/h 28 km/h 52% 0.00 mm 523.13 W/m2
13:59 32.0 °C 21.0 °C 1015.3 hPa NE 20 km/h 24 km/h 53% 0.00 mm 479.71 W/m2
14:04 32.0 °C 21.0 °C 1015.3 hPa East 11 km/h 16 km/h 52% 0.00 mm 459.98 W/m2
14:09 32.0 °C 21.0 °C 1015.3 hPa NNE 10 km/h 16 km/h 51% 0.00 mm 466.00 W/m2
14:14 32.0 °C 21.0 °C 1015.3 hPa South 13 km/h 16 km/h 51% 0.00 mm 457.03 W/m2
14:19 32.0 °C 21.0 °C 1015.3 hPa NNE 13 km/h 20 km/h 51% 0.00 mm 437.84 W/m2
14:24 32.0 °C 21.0 °C 1015.3 hPa East 13 km/h 16 km/h 52% 0.00 mm 434.56 W/m2
14:29 32.0 °C 21.0 °C 1015.1 hPa East 18 km/h 20 km/h 52% 0.00 mm 424.19 W/m2
14:34 32.0 °C 21.0 °C 1015.3 hPa East 13 km/h 20 km/h 52% 0.00 mm 433.33 W/m2
14:39 32.0 °C 22.0 °C 1015.3 hPa ESE 22 km/h 28 km/h 54% 0.00 mm 428.54 W/m2
14:44 32.0 °C 21.0 °C 1015.3 hPa ESE 14 km/h 28 km/h 53% 0.00 mm 417.21 W/m2
14:49 32.0 °C 21.0 °C 1015.3 hPa East 16 km/h 24 km/h 53% 0.00 mm 412.64 W/m2
14:54 32.0 °C 21.0 °C 1014.9 hPa SE 13 km/h 16 km/h 53% 0.00 mm 399.51 W/m2
14:59 32.0 °C 21.0 °C 1015.1 hPa East 21 km/h 28 km/h 53% 0.00 mm 401.16 W/m2
15:04 32.0 °C 21.0 °C 1014.9 hPa ESE 14 km/h 24 km/h 53% 0.00 mm 399.86 W/m2
15:09 32.0 °C 21.0 °C 1014.9 hPa SE 10 km/h 16 km/h 53% 0.00 mm 398.37 W/m2
15:14 32.0 °C 21.0 °C 1015.1 hPa SE 17 km/h 28 km/h 53% 0.00 mm 396.76 W/m2
15:19 31.0 °C 21.0 °C 1014.9 hPa NNE 15 km/h 24 km/h 54% 0.00 mm 392.68 W/m2
15:24 31.0 °C 21.0 °C 1015.1 hPa ESE 17 km/h 28 km/h 54% 0.00 mm 378.63 W/m2
15:29 31.0 °C 21.0 °C 1015.3 hPa ESE 12 km/h 20 km/h 54% 0.00 mm 387.09 W/m2
15:34 32.0 °C 21.0 °C 1014.9 hPa ESE 11 km/h 16 km/h 54% 0.00 mm 389.59 W/m2
15:39 32.0 °C 21.0 °C 1015.3 hPa East 18 km/h 24 km/h 54% 0.00 mm 412.17 W/m2
15:44 31.0 °C 21.0 °C 1015.3 hPa NE 18 km/h 32 km/h 56% 0.00 mm 340.21 W/m2
15:49 31.0 °C 21.0 °C 1015.3 hPa West 17 km/h 24 km/h 57% 0.00 mm 168.03 W/m2
15:54 31.0 °C 21.0 °C 1015.3 hPa ENE 17 km/h 24 km/h 57% 0.00 mm 309.46 W/m2
15:59 31.0 °C 21.0 °C 1015.3 hPa SE 14 km/h 20 km/h 57% 0.00 mm 276.38 W/m2
16:04 30.0 °C 21.0 °C 1015.3 hPa East 17 km/h 20 km/h 58% 0.00 mm 93.92 W/m2
16:09 30.0 °C 21.0 °C 1015.3 hPa ESE 10 km/h 20 km/h 58% 0.00 mm 76.29 W/m2
16:14 30.0 °C 21.0 °C 1015.3 hPa East 13 km/h 20 km/h 59% 0.00 mm 65.23 W/m2
16:19 30.0 °C 21.0 °C 1015.3 hPa ESE 17 km/h 20 km/h 59% 0.00 mm 64.03 W/m2
16:24 30.0 °C 21.0 °C 1015.4 hPa East 12 km/h 20 km/h 59% 0.00 mm 64.67 W/m2
16:29 29.0 °C 21.0 °C 1015.5 hPa East 10 km/h 16 km/h 59% 0.00 mm 57.57 W/m2
16:34 29.0 °C 21.0 °C 1015.3 hPa ESE 11 km/h 16 km/h 59% 0.00 mm 95.59 W/m2
16:39 29.0 °C 21.0 °C 1015.4 hPa NE 10 km/h 16 km/h 59% 0.00 mm 207.75 W/m2
16:44 30.0 °C 21.0 °C 1015.5 hPa East 12 km/h 20 km/h 58% 0.00 mm 206.85 W/m2
16:49 29.0 °C 20.0 °C 1015.7 hPa SE 10 km/h 16 km/h 58% 0.00 mm 192.38 W/m2
16:54 29.0 °C 20.0 °C 1015.7 hPa ENE 10 km/h 16 km/h 58% 0.00 mm 111.81 W/m2
16:59 29.0 °C 20.0 °C 1015.7 hPa ENE 15 km/h 20 km/h 59% 0.00 mm 65.69 W/m2
17:04 29.0 °C 20.0 °C 1015.7 hPa NE 10 km/h 16 km/h 59% 0.00 mm 62.44 W/m2
17:09 29.0 °C 21.0 °C 1015.8 hPa ENE 16 km/h 20 km/h 60% 0.00 mm 57.58 W/m2
17:14 29.0 °C 21.0 °C 1016.0 hPa East 11 km/h 20 km/h 61% 0.00 mm 42.91 W/m2
17:19 29.0 °C 21.0 °C 1016.0 hPa East 10 km/h 16 km/h 61% 0.00 mm 35.56 W/m2
17:24 29.0 °C 21.0 °C 1016.0 hPa SE 9 km/h 16 km/h 61% 0.00 mm 31.50 W/m2
17:29 29.0 °C 21.0 °C 1016.0 hPa ESE 12 km/h 16 km/h 61% 0.00 mm 23.21 W/m2
17:34 29.0 °C 20.0 °C 1016.0 hPa East 19 km/h 28 km/h 60% 0.00 mm 13.44 W/m2
17:39 29.0 °C 20.0 °C 1016.4 hPa ESE 12 km/h 20 km/h 60% 0.00 mm 7.01 W/m2
17:44 28.0 °C 20.0 °C 1016.4 hPa East 11 km/h 16 km/h 61% 0.00 mm 4.92 W/m2
17:49 28.0 °C 20.0 °C 1016.4 hPa ENE 9 km/h 20 km/h 61% 0.00 mm 2.61 W/m2
17:54 28.0 °C 20.0 °C 1016.4 hPa North 14 km/h 16 km/h 60% 0.00 mm 0.80 W/m2
17:59 28.0 °C 20.0 °C 1016.4 hPa ENE 15 km/h 20 km/h 60% 0.00 mm 0.00 W/m2
18:04 28.0 °C 19.0 °C 1016.7 hPa ESE 13 km/h 20 km/h 60% 0.00 mm 0.00 W/m2
18:09 28.0 °C 19.0 °C 1016.7 hPa ESE 10 km/h 16 km/h 60% 0.00 mm 0.00 W/m2
18:14 28.0 °C 19.0 °C 1016.7 hPa SSE 10 km/h 16 km/h 60% 0.00 mm 0.00 W/m2
18:19 28.0 °C 19.0 °C 1016.7 hPa East 10 km/h 16 km/h 60% 0.00 mm 0.00 W/m2
18:24 28.0 °C 19.0 °C 1016.9 hPa SE 13 km/h 16 km/h 60% 0.00 mm 0.00 W/m2
18:29 28.0 °C 19.0 °C 1016.8 hPa ESE 9 km/h 16 km/h 60% 0.00 mm 0.00 W/m2
18:34 27.0 °C 19.0 °C 1016.7 hPa ESE 5 km/h 8 km/h 60% 0.00 mm 0.00 W/m2
18:39 27.0 °C 19.0 °C 1016.9 hPa SSE 8 km/h 8 km/h 60% 0.00 mm 0.00 W/m2
18:44 27.0 °C 19.0 °C 1017.0 hPa SE 8 km/h 12 km/h 61% 0.00 mm 0.00 W/m2
18:49 27.0 °C 19.0 °C 1017.0 hPa ESE 5 km/h 12 km/h 61% 0.00 mm 0.00 W/m2
18:54 27.0 °C 19.0 °C 1017.0 hPa East 5 km/h 8 km/h 61% 0.00 mm 0.00 W/m2
18:59 27.0 °C 19.0 °C 1017.0 hPa East 5 km/h 8 km/h 61% 0.00 mm 0.00 W/m2
19:04 27.0 °C 19.0 °C 1017.0 hPa SE 5 km/h 8 km/h 62% 0.00 mm 0.00 W/m2
19:09 27.0 °C 19.0 °C 1017.3 hPa SSE 2 km/h 4 km/h 62% 0.00 mm 0.00 W/m2
19:14 27.0 °C 19.0 °C 1017.3 hPa NNW 6 km/h 12 km/h 62% 0.00 mm 0.00 W/m2
19:19 27.0 °C 19.0 °C 1017.4 hPa ENE 5 km/h 8 km/h 62% 0.00 mm 0.00 W/m2
19:24 27.0 °C 19.0 °C 1017.4 hPa ESE 5 km/h 8 km/h 62% 0.00 mm 0.00 W/m2
19:29 27.0 °C 19.0 °C 1017.4 hPa ESE 4 km/h 8 km/h 63% 0.00 mm 0.00 W/m2
19:34 27.0 °C 19.0 °C 1017.6 hPa ESE 1 km/h 4 km/h 63% 0.00 mm 0.00 W/m2
19:39 27.0 °C 19.0 °C 1017.4 hPa ESE 4 km/h 8 km/h 63% 0.00 mm 0.00 W/m2
19:44 27.0 °C 19.0 °C 1017.6 hPa East 5 km/h 8 km/h 63% 0.00 mm 0.00 W/m2
19:49 27.0 °C 19.0 °C 1017.6 hPa ESE 3 km/h 4 km/h 63% 0.00 mm 0.00 W/m2
19:54 27.0 °C 19.0 °C 1017.8 hPa SE 4 km/h 4 km/h 63% 0.00 mm 0.00 W/m2
19:59 26.0 °C 19.0 °C 1017.8 hPa South 2 km/h 4 km/h 63% 0.00 mm 0.00 W/m2
20:04 26.0 °C 19.0 °C 1017.8 hPa ESE 3 km/h 4 km/h 64% 0.00 mm 0.00 W/m2
20:09 26.0 °C 19.0 °C 1017.8 hPa East 4 km/h 4 km/h 64% 0.00 mm 0.00 W/m2
20:14 26.0 °C 19.0 °C 1017.8 hPa ENE 5 km/h 8 km/h 64% 0.00 mm 0.00 W/m2
20:19 26.0 °C 19.0 °C 1018.0 hPa NNE 1 km/h 4 km/h 64% 0.00 mm 0.00 W/m2
20:24 26.0 °C 19.0 °C 1018.1 hPa ENE 3 km/h 4 km/h 64% 0.00 mm 0.00 W/m2
20:29 26.0 °C 19.0 °C 1018.1 hPa ESE 2 km/h 4 km/h 63% 0.00 mm 0.00 W/m2
20:34 26.0 °C 19.0 °C 1018.1 hPa East 3 km/h 4 km/h 63% 0.00 mm 0.00 W/m2
20:39 26.0 °C 19.0 °C 1018.1 hPa East 4 km/h 8 km/h 63% 0.00 mm 0.00 W/m2
20:44 26.0 °C 19.0 °C 1018.1 hPa East 4 km/h 8 km/h 63% 0.00 mm 0.00 W/m2
20:49 26.0 °C 19.0 °C 1018.1 hPa ESE 3 km/h 4 km/h 63% 0.00 mm 0.00 W/m2
20:54 26.0 °C 19.0 °C 1018.1 hPa ENE 6 km/h 8 km/h 63% 0.00 mm 0.00 W/m2
20:59 26.0 °C 19.0 °C 1018.3 hPa ESE 4 km/h 4 km/h 63% 0.00 mm 0.00 W/m2
21:04 26.0 °C 19.0 °C 1018.4 hPa NE 2 km/h 4 km/h 63% 0.00 mm 0.00 W/m2
21:09 26.0 °C 19.0 °C 1018.4 hPa East 3 km/h 8 km/h 63% 0.00 mm 0.00 W/m2
21:14 26.0 °C 19.0 °C 1018.4 hPa ESE 4 km/h 8 km/h 63% 0.00 mm 0.00 W/m2
21:19 26.0 °C 19.0 °C 1018.1 hPa East 5 km/h 8 km/h 63% 0.00 mm 0.00 W/m2
21:24 26.0 °C 19.0 °C 1018.3 hPa East 3 km/h 4 km/h 64% 0.00 mm 0.00 W/m2
21:29 26.0 °C 19.0 °C 1018.3 hPa East 5 km/h 8 km/h 63% 0.00 mm 0.00 W/m2
21:34 26.0 °C 19.0 °C 1018.1 hPa ESE 6 km/h 8 km/h 63% 0.00 mm 0.00 W/m2
21:39 26.0 °C 19.0 °C 1018.1 hPa ESE 4 km/h 8 km/h 64% 0.00 mm 0.00 W/m2
21:44 26.0 °C 19.0 °C 1018.1 hPa East 4 km/h 4 km/h 64% 0.00 mm 0.00 W/m2
21:49 26.0 °C 19.0 °C 1018.1 hPa SE 2 km/h 4 km/h 64% 0.00 mm 0.00 W/m2
21:54 26.0 °C 19.0 °C 1018.1 hPa SE 4 km/h 4 km/h 65% 0.00 mm 0.00 W/m2
21:59 26.0 °C 19.0 °C 1018.1 hPa ESE 4 km/h 4 km/h 65% 0.00 mm 0.00 W/m2
22:04 26.0 °C 19.0 °C 1018.1 hPa ESE 4 km/h 4 km/h 65% 0.00 mm 0.00 W/m2
22:09 26.0 °C 19.0 °C 1018.1 hPa ESE 6 km/h 8 km/h 65% 0.00 mm 0.00 W/m2
22:14 26.0 °C 19.0 °C 1018.1 hPa SSE 8 km/h 12 km/h 65% 0.00 mm 0.00 W/m2
22:19 26.0 °C 19.0 °C 1018.1 hPa East 6 km/h 12 km/h 65% 0.00 mm 0.00 W/m2
22:24 26.0 °C 19.0 °C 1018.1 hPa East 5 km/h 8 km/h 65% 0.00 mm 0.00 W/m2
22:29 26.0 °C 19.0 °C 1018.1 hPa East 3 km/h 4 km/h 66% 0.00 mm 0.00 W/m2
22:34 26.0 °C 19.0 °C 1018.1 hPa SE 3 km/h 4 km/h 66% 0.00 mm 0.00 W/m2
22:39 26.0 °C 19.0 °C 1018.1 hPa ENE 7 km/h 8 km/h 66% 0.00 mm 0.00 W/m2
22:44 26.0 °C 19.0 °C 1018.1 hPa ESE 6 km/h 8 km/h 66% 0.00 mm 0.00 W/m2
22:49 26.0 °C 19.0 °C 1018.1 hPa East 4 km/h 8 km/h 65% 0.00 mm 0.00 W/m2
22:54 26.0 °C 19.0 °C 1018.1 hPa ESE 8 km/h 12 km/h 65% 0.00 mm 0.00 W/m2
22:59 26.0 °C 19.0 °C 1018.1 hPa ESE 4 km/h 4 km/h 66% 0.00 mm 0.00 W/m2
23:04 26.0 °C 19.0 °C 1018.0 hPa ENE 6 km/h 8 km/h 66% 0.00 mm 0.00 W/m2
23:09 26.0 °C 19.0 °C 1018.1 hPa ESE 1 km/h 4 km/h 66% 0.00 mm 0.00 W/m2
23:14 26.0 °C 19.0 °C 1018.0 hPa ENE 2 km/h 4 km/h 67% 0.00 mm 0.00 W/m2
23:19 26.0 °C 19.0 °C 1017.8 hPa Calm     67% 0.00 mm 0.00 W/m2
23:24 26.0 °C 19.0 °C 1018.1 hPa NW 3 km/h 4 km/h 68% 0.00 mm 0.00 W/m2
23:29 26.0 °C 19.0 °C 1018.1 hPa NW 5 km/h 8 km/h 69% 0.00 mm 0.00 W/m2
23:34 25.0 °C 19.0 °C 1018.1 hPa NW 7 km/h 8 km/h 70% 0.00 mm 0.00 W/m2
23:39 25.0 °C 19.0 °C 1018.1 hPa NNW 2 km/h 4 km/h 70% 0.00 mm 0.00 W/m2
23:44 25.0 °C 19.0 °C 1017.9 hPa NNW 3 km/h 4 km/h 71% 0.00 mm 0.00 W/m2
23:49 25.0 °C 19.0 °C 1018.0 hPa NNW 3 km/h 4 km/h 71% 0.00 mm 0.00 W/m2
23:54 25.0 °C 19.0 °C 1018.0 hPa North 2 km/h 4 km/h 71% 0.00 mm 0.00 W/m2
23:59 25.0 °C 19.0 °C 1017.8 hPa Calm     71% 0.00 mm 0.00 W/m2
PIMOHWEATHER Philippines
Compliments of Weather Underground - 2 mb